Time,TemperatureF,DewpointF,PressureIn,WindDirection,WindDirectionDegrees,WindSpeedMPH,WindSpeedGustMPH,Humidity,HourlyPrecipIn,Conditions,Clouds,dailyrainin,SoftwareType,DateUTC
2013-10-04 18:26:00,56.1,49.0,0.00,ESE,112,0.0,0.0,77,0.00,,,0.39,VWS V13.01,2013-10-04 23:26:00,
2013-10-04 18:31:00,56.1,49.0,0.00,ESE,113,5.4,5.8,77,0.00,,,0.00,VWS V13.01,2013-10-04 23:31:00,
2013-10-04 18:36:00,56.1,49.0,0.00,East,84,0.0,0.0,77,0.00,,,0.00,VWS V13.01,2013-10-04 23:36:00,
2013-10-04 18:41:00,56.1,49.0,0.00,SE,130,5.8,5.8,77,0.00,,,0.00,VWS V13.01,2013-10-04 23:41:00,
2013-10-04 18:46:00,55.9,48.8,0.00,ENE,73,0.0,0.0,77,0.00,,,0.00,VWS V13.01,2013-10-04 23:46:00,
2013-10-04 18:51:00,55.9,48.8,0.00,ESE,103,0.0,3.6,77,0.00,,,0.00,VWS V13.01,2013-10-04 23:51:00,
2013-10-04 18:56:00,55.9,48.8,0.00,SE,137,0.0,6.3,77,0.00,,,0.00,VWS V13.01,2013-10-04 23:56:00,
2013-10-04 19:01:00,55.9,48.8,0.00,ESE,109,3.1,5.4,77,0.00,,,0.00,VWS V13.01,2013-10-05 00:01:00,
2013-10-04 19:06:00,55.9,48.8,0.00,ESE,110,2.2,5.4,77,0.00,,,0.00,VWS V13.01,2013-10-05 00:06:00,
2013-10-04 19:11:00,55.9,49.2,0.00,ESE,105,0.0,0.0,78,0.00,,,0.00,VWS V13.01,2013-10-05 00:11:00,
2013-10-04 19:16:00,55.9,49.2,0.00,ESE,108,3.6,3.6,78,0.00,,,0.00,VWS V13.01,2013-10-05 00:16:00,
2013-10-04 19:21:00,55.9,49.2,0.00,ESE,104,2.7,3.1,78,0.00,,,0.00,VWS V13.01,2013-10-05 00:21:00,
2013-10-04 19:26:00,55.8,49.0,0.00,ESE,109,3.1,3.1,78,0.00,,,0.00,VWS V13.01,2013-10-05 00:26:00,
2013-10-04 19:31:00,55.8,49.0,0.00,ESE,107,0.0,4.0,78,0.00,,,0.00,VWS V13.01,2013-10-05 00:31:00,
2013-10-04 19:36:00,55.8,49.4,0.00,ENE,64,0.0,2.2,79,0.00,,,0.00,VWS V13.01,2013-10-05 00:36:00,
2013-10-04 19:41:00,55.8,49.4,0.00,ESE,111,0.0,0.0,79,0.00,,,0.00,VWS V13.01,2013-10-05 00:41:00,
2013-10-04 19:46:00,55.8,49.4,0.00,East,95,6.3,6.3,79,0.00,,,0.00,VWS V13.01,2013-10-05 00:46:00,
2013-10-04 19:51:00,55.8,49.7,0.00,ENE,63,3.1,5.4,80,0.00,,,0.00,VWS V13.01,2013-10-05 00:51:00,
2013-10-04 19:56:00,55.8,49.7,0.00,East,96,2.7,2.7,80,0.00,,,0.00,VWS V13.01,2013-10-05 00:56:00,
2013-10-04 20:01:00,55.8,50.0,0.00,ESE,109,4.9,4.9,81,0.00,,,0.00,VWS V13.01,2013-10-05 01:01:00,
2013-10-04 20:06:00,55.8,50.0,0.00,East,101,3.1,4.5,81,0.00,,,0.00,VWS V13.01,2013-10-05 01:06:00,
2013-10-04 20:11:00,55.9,50.2,0.00,ENE,74,2.2,2.2,81,0.00,,,0.00,VWS V13.01,2013-10-05 01:11:00,
2013-10-04 20:16:00,55.8,50.0,0.00,ESE,114,0.0,2.7,81,0.00,,,0.00,VWS V13.01,2013-10-05 01:16:00,
2013-10-04 20:21:00,55.9,50.5,0.00,East,100,7.6,7.6,82,0.00,,,0.00,VWS V13.01,2013-10-05 01:21:00,
2013-10-04 20:26:00,56.1,51.0,0.00,ESE,104,5.8,6.3,83,0.00,,,0.00,VWS V13.01,2013-10-05 01:26:00,
2013-10-04 20:31:00,56.1,51.0,0.00,ESE,111,2.7,4.9,83,0.00,,,0.00,VWS V13.01,2013-10-05 01:31:00,
2013-10-04 20:36:00,56.1,51.0,0.00,ESE,122,4.9,4.9,83,0.00,,,0.00,VWS V13.01,2013-10-05 01:36:00,
2013-10-04 20:41:00,56.1,51.4,0.00,ESE,108,4.0,4.0,84,0.00,,,0.00,VWS V13.01,2013-10-05 01:41:00,
2013-10-04 20:46:00,56.1,51.4,0.00,ESE,113,0.0,2.7,84,0.00,,,0.00,VWS V13.01,2013-10-05 01:46:00,
2013-10-04 20:51:00,56.1,51.4,0.00,ESE,112,0.0,5.4,84,0.00,,,0.00,VWS V13.01,2013-10-05 01:51:00,
2013-10-04 20:56:00,56.1,51.4,0.00,NE,37,0.0,0.0,84,0.00,,,0.00,VWS V13.01,2013-10-05 01:56:00,
2013-10-04 21:01:00,55.9,51.2,0.00,East,98,5.4,7.6,84,0.00,,,0.00,VWS V13.01,2013-10-05 02:01:00,
2013-10-04 21:06:00,55.9,51.2,0.00,East,95,5.4,5.4,84,0.00,,,0.00,VWS V13.01,2013-10-05 02:06:00,
2013-10-04 21:11:00,55.9,51.2,0.00,East,79,2.7,2.7,84,0.00,,,0.00,VWS V13.01,2013-10-05 02:11:00,
2013-10-04 21:16:00,55.9,51.2,0.00,ESE,109,3.6,3.6,84,0.00,,,0.00,VWS V13.01,2013-10-05 02:16:00,
2013-10-04 21:21:00,55.9,51.2,0.00,East,100,4.0,4.0,84,0.00,,,0.00,VWS V13.01,2013-10-05 02:21:00,
2013-10-04 21:26:00,56.1,51.4,0.00,ESE,113,8.1,8.1,84,0.00,,,0.00,VWS V13.01,2013-10-05 02:26:00,
2013-10-04 21:31:00,56.3,51.5,0.00,ESE,103,7.6,7.6,84,0.00,,,0.00,VWS V13.01,2013-10-05 02:31:00,
2013-10-04 21:36:00,56.3,51.5,0.00,ESE,104,3.1,3.1,84,0.00,,,0.00,VWS V13.01,2013-10-05 02:36:00,
2013-10-04 21:41:00,56.3,51.2,0.00,ESE,103,8.7,8.7,83,0.00,,,0.00,VWS V13.01,2013-10-05 02:41:00,
2013-10-04 21:46:00,56.3,50.9,0.00,ESE,117,10.5,12.8,82,0.00,,,0.00,VWS V13.01,2013-10-05 02:46:00,
2013-10-04 21:51:00,56.3,50.2,0.00,East,91,5.8,8.3,80,0.00,,,0.00,VWS V13.01,2013-10-05 02:51:00,
2013-10-04 21:56:00,56.3,49.9,0.00,ENE,67,8.1,8.7,79,0.00,,,0.00,VWS V13.01,2013-10-05 02:56:00,
2013-10-04 22:01:00,56.3,49.5,0.00,ENE,75,8.3,8.3,78,0.00,,,0.00,VWS V13.01,2013-10-05 03:01:00,
2013-10-04 22:06:00,56.3,49.5,0.00,ESE,114,3.1,3.1,78,0.00,,,0.00,VWS V13.01,2013-10-05 03:06:00,
2013-10-04 22:11:00,56.1,49.4,0.00,ESE,106,5.4,5.4,78,0.00,,,0.00,VWS V13.01,2013-10-05 03:11:00,
2013-10-04 22:16:00,56.1,49.4,0.00,ESE,111,3.1,3.1,78,0.00,,,0.00,VWS V13.01,2013-10-05 03:16:00,
2013-10-04 22:21:00,56.1,49.4,0.00,ENE,62,5.8,5.8,78,0.00,,,0.00,VWS V13.01,2013-10-05 03:21:00,
2013-10-04 22:26:00,55.9,49.2,0.00,ESE,120,6.3,6.3,78,0.00,,,0.00,VWS V13.01,2013-10-05 03:26:00,
2013-10-04 22:31:00,55.9,49.2,0.00,ESE,112,5.4,5.4,78,0.00,,,0.00,VWS V13.01,2013-10-05 03:31:00,
2013-10-04 22:36:00,55.9,49.2,0.00,ESE,103,10.5,10.5,78,0.00,,,0.00,VWS V13.01,2013-10-05 03:36:00,
2013-10-04 22:41:00,55.9,48.8,0.00,East,85,0.0,3.1,77,0.00,,,0.00,VWS V13.01,2013-10-05 03:41:00,
2013-10-04 22:46:00,55.9,48.5,0.00,ESE,110,2.7,2.7,76,0.00,,,0.00,VWS V13.01,2013-10-05 03:46:00,
2013-10-04 22:51:00,55.9,48.1,0.00,ESE,102,8.3,8.3,75,0.00,,,0.00,VWS V13.01,2013-10-05 03:51:00,
2013-10-04 22:56:00,55.9,47.8,0.00,ESE,111,2.7,5.8,74,0.00,,,0.00,VWS V13.01,2013-10-05 03:56:00,
2013-10-04 23:01:00,55.9,47.8,0.00,ESE,112,7.6,8.3,74,0.00,,,0.00,VWS V13.01,2013-10-05 04:01:00,
2013-10-04 23:02:00,55.9,47.4,0.00,ESE,107,8.1,8.3,73,0.00,,,0.00,VWS V13.01,2013-10-05 04:02:00,
2013-10-04 23:07:00,55.9,47.4,0.00,ESE,110,4.0,10.1,73,0.00,,,0.00,VWS V13.01,2013-10-05 04:07:00,
2013-10-04 23:12:00,55.9,47.1,0.00,ESE,123,8.1,8.1,72,0.00,,,0.00,VWS V13.01,2013-10-05 04:12:00,
2013-10-04 23:17:00,55.9,47.1,0.00,ESE,108,5.4,7.6,72,0.00,,,0.00,VWS V13.01,2013-10-05 04:17:00,
2013-10-04 23:22:00,55.9,46.7,0.00,ESE,105,8.3,8.3,71,0.00,,,0.00,VWS V13.01,2013-10-05 04:22:00,
2013-10-04 23:27:00,55.9,46.7,0.00,East,100,6.3,6.3,71,0.00,,,0.00,VWS V13.01,2013-10-05 04:27:00,
2013-10-04 23:32:00,55.9,46.7,0.00,ESE,104,5.8,6.3,71,0.00,,,0.00,VWS V13.01,2013-10-05 04:32:00,
2013-10-04 23:37:00,55.9,47.1,0.00,ESE,115,8.3,8.3,72,0.00,,,0.00,VWS V13.01,2013-10-05 04:37:00,
2013-10-04 23:42:00,55.8,47.2,0.00,East,96,5.8,11.0,73,0.00,,,0.00,VWS V13.01,2013-10-05 04:42:00,
2013-10-04 23:47:00,55.9,47.8,0.00,ESE,111,7.6,9.6,74,0.04,,,0.04,VWS V13.01,2013-10-05 04:47:00,
2013-10-04 23:52:00,55.9,48.1,0.00,ESE,114,10.5,10.5,75,0.04,,,0.04,VWS V13.01,2013-10-05 04:52:00,
2013-10-04 23:57:00,55.8,48.3,0.00,East,90,8.3,10.1,76,0.04,,,0.04,VWS V13.01,2013-10-05 04:57:00,